Home > Weather > San Juan de Pasto > Past weeks

Flag for Colombia Weather for the Past 2 Weeks in San Juan de Pasto, Colombia

Now
52 °F

Passing clouds.


Feels Like: 52 °F
Forecast: 52 / 65 °F
Wind: 2 mph from North

Location: Latacunga Airport

Current Time: May 3, 2016 at 5:59:12 AM

Latest Report: May 3, 2016 at 5:00 AM


Visibility: N/A

Pressure: 30.42 "Hg (22.43 "Hg at 2535m altitude)

Humidity: 100%

Dew Point: 52 °F

Location of San Juan de PastoLocation

Historic Weather in San Juan de Pasto — Graph

°F

San Juan de Pasto Temperature Yesterday

Maximum temperature yesterday: 68 °F (at 1:00 PM)
Minimum temperature yesterday: 52 °F (at 12:00 AM)
Average temperature yesterday: 57 °F

High & Low Weather Summary for the Past Weeks

 TemperatureHumidityPressure
High73 °F (Apr 25, 1:00 PM)100% (Apr 18, 4:00 AM)30.51 "Hg (Apr 18, 4:00 AM)
Low46 °F (Apr 24, 6:00 AM)47% (Apr 25, 1:00 PM)30.24 "Hg (Apr 26, 4:00 PM)
Average57 °F89%30.41 "Hg
* Reported Apr 18 4:00 AM — May 3 4:00 AM, San Juan de Pasto, Weather by CustomWeather, © 2016

Note: Actual official high and low records may vary slightly from our data, if they occured in-between our weather recording intervals... More about our weather records

Advertising

San Juan de Pasto Weather History for the Previous 24 Hours

Scroll right to see more
 ConditionsComfort  
Time TempWeatherWind HumidityBarometerVisibility
4:00 AM
Tue, May 3
52 °FPassing clouds.2 mph100%30.42 "HgN/A
3:00 AM50 °FPassing clouds.3 mph100%30.42 "HgN/A
2:00 AM52 °FPassing clouds.2 mph100%30.45 "HgN/A
1:00 AM52 °FPassing clouds.2 mph100%30.48 "HgN/A
11:00 PM
Mon, May 2
54 °FPassing clouds.5 mph100%30.51 "HgN/A
10:00 PM54 °FPassing clouds.2 mph100%30.48 "HgN/A
9:00 PM54 °FPassing clouds.7 mph100%30.48 "HgN/A
8:00 PM55 °FPassing clouds.5 mph100%30.45 "HgN/A
7:00 PM57 °FPartly cloudy.10 mph100%30.42 "HgN/A
6:00 PM57 °FScattered showers. Broken clouds.3 mph94%30.39 "HgN/A
5:00 PM59 °FThunderstorms. Scattered clouds.6 mph88%30.36 "HgN/A
4:00 PM63 °FScattered showers. Scattered clouds.3 mph73%30.33 "HgN/A
3:00 PM63 °FThunderstorms. Scattered clouds.8 mph73%30.36 "HgN/A
2:00 PM68 °FScattered clouds.6 mph60%30.39 "HgN/A
1:00 PM68 °FScattered clouds.8 mph60%30.42 "HgN/A
12:00 PM66 °FScattered clouds.5 mph64%30.45 "HgN/A
11:00 AM64 °FScattered clouds.2 mph64%30.48 "HgN/A
10:00 AM61 °FPartly sunny.5 mph68%30.51 "HgN/A
9:00 AM57 °FPartly sunny.5 mph88%30.51 "HgN/A
8:00 AM55 °FPartly sunny.3 mph100%30.48 "HgN/A
7:00 AM52 °FPartly sunny.2 mph100%30.45 "HgN/A
6:00 AM52 °FPassing clouds.1 mph100%30.45 "HgN/A
5:00 AM52 °FPassing clouds.2 mph100%30.42 "HgN/A
Weather by CustomWeather, © 2016

See weather overviewHow to use our weather pages